Welcome to the New NWS' Forecast!
Most changes are behind the scenes, but click here for differences you might notice.

Regional Weather Roundup (RWR)

Issued by Gray - Portland, ME (GYX)

                            
000
ASUS41 KGYX 182210
RWRGYX
WEATHER ROUNDUP FOR MAINE AND NEW HAMPSHIRE
NATIONAL WEATHER SERVICE GRAY ME
500 PM EST SUN NOV 18 2018

MEZ002-005-006-010-012-015-018-020-021-024-026-027-029-182300-
MAINE
  
CITY           SKY/WX    TMP DP  RH WIND       PRES   REMARKS
PORTLAND       CLOUDY    34  17  50 SW5       30.32S                  
SANFORD        FAIR      32  18  56 CALM      30.32R                  
BAR HARBOR     FAIR      27  19  72 CALM      30.33S                  
WISCASSET      FAIR      30  22  72 CALM      30.34R                  
ROCKLAND       MOCLDY    30  21  69 CALM      30.33R                  
FRYEBURG       FAIR      30  12  47 SW5       30.29R                  
LEWISTONAUBURN MOCLDY    30  19  63 SE5       30.30S                  
AUGUSTA        CLOUDY    30  12  47 CALM      30.31R                  
WATERVILLE     CLOUDY    28  11  48 MISG      30.28S                  
BANGOR         FAIR      23  14  68 CALM      30.32R                  
GREENVILLE       N/A     17   9  70 NE5       30.20S                  
MILLINOCKET    FAIR      20   9  62 W3        30.30S                  
HOULTON        FAIR      13  11  92 CALM      30.27S                  
PRESQUE ISLE   FAIR      13   9  84 S3        30.26S                  
FRENCHVILLE    FAIR      19   8  62 CALM      30.19S                  
CARIBOU        FAIR      16   7  67 SW3       30.24R                  
$$

NHZ002-005-008-009-011-012-014-182300-
NEW HAMPSHIRE
  
CITY           SKY/WX    TMP DP  RH WIND       PRES   REMARKS
PORTSMOUTH     CLOUDY    35  19  53 CALM      30.31R                  
ROCHESTER      CLOUDY    33  19  56 CALM      30.31R                  
NASHUA         CLOUDY    36  28  73 CALM      30.32R                  
MANCHESTER     CLOUDY    35  22  58 CALM      30.30R                  
CONCORD        CLOUDY    32  21  64 CALM      30.31R                  
LACONIA        MOCLDY    31  20  63 CALM      30.29                   
PLYMOUTH       MOCLDY    28  18  65 CALM      30.29S                  
BERLIN         FAIR      21  15  78 CALM      30.25R                  
WHITEFIELD     CLOUDY    23  17  78 CALM      30.26R                  
JAFFREY        CLOUDY    32  21  64 VRB3      30.28R                  
KEENE          CLOUDY    33  22  63 SW3       30.31R                  
LEBANON        CLOUDY    30  20  66 CALM      30.28R                  
MT WASHINGTON  PTCLDY     5  -8  56 W36         N/A  WCI -21          
$$

VTZ005-007-008-182300-
VERMONT
  
CITY           SKY/WX    TMP DP  RH WIND       PRES   REMARKS
ST JOHNSBURY     N/A     28  17  63 MISG      30.26S                  
MONTPELIER     CLOUDY    26  18  71 CALM      30.28S                  
BURLINGTON     MOCLDY    30  15  53 CALM      30.28F                  
$$

MAZ007-012-024-CTZ003-RIZ002-NYZ038-NYZ072-182300-
SOUTHERN NEW ENGLAND AND NY
  
CITY           SKY/WX    TMP DP  RH WIND       PRES   REMARKS
BOSTON         CLOUDY    40  29  64 S7        30.33R                  
WORCESTER      CLOUDY    33  19  56 W5        30.28S                  
NANTUCKET      MOCLDY    41  29  62 CALM      30.33R                  
PROVIDENCE     CLOUDY    40  24  53 W6        30.33R                  
HARTFORD       CLOUDY    37  23  56 S7        30.31S                  
ALBANY         FLURRIES  33  24  69 N3        30.30F                  
NEW YORK CITY  CLOUDY    44  28  53 S5        30.30S                  
$$

ANZ081-ANZ082-ANZ150-NHZ014-MEZ023>029-182300-
COASTAL MARINE OBSERVATIONS
  
STATION/POSITION TIME  TEMP    WIND        PRES    WAVE
                       AIR SEA DIR/SP/G            HT/PER
                 (UTC) (F)     (DEG/KT/KT) (MB)    (FT/S)
MOUNT DESERT ROC 2200   34     240/ 11/ 12 1027.1R
MATINICUS ROCK   2100   33     230/  4/  5 1026.4S
ISLE OF SHOALS   2100   37     180/  3/  5 1026.4S
CASHES LEDGE BUO 2150   37 49              1024.4R   2/ 9
$$

.............KEY..............
   WCI - WIND CHILL
   TC  - TEMPERATURE IN CELSIUS
   VSB - VISIBILITY IN MILES
   HX  - HEAT INDEX
   FAIR- INDICATES FEW OR NO CLOUDS BELOW 12,000 FT, WITH NO 
         SIGNIFICANT WEATHER AND/OR OBSTRUCTIONS TO VISIBILITY.